EUTELSAT HOTBIRD 13B

Last updated on Sat Jul 05 2025 00:02:44 GMT+0000 (Coordinated Universal Time)

1 29270U 06032A 25185.57198172 .00000169 00000+0 00000+0 0 9996 2 29270 0.7622 86.1019 0004379 13.0896 62.6215 1.00273648 43824
UTC large
Height (km)
Speed (km/s)
/
Latitude / Longitude
Inclination (degrees)
Orbital Period (minutes)
Azimuth
Elevation
Range (km)
Doppler Factor

Next 0 passes for location: London (51.5072 / 0.1276)

Sorry there are no passes over London.